User: anonymous   Login
Location: Birkenwerder
(52.6919°N, 13.2774°E)
Time: 14:29:16
(UTC+00:00)
Language:

Cosmos 1570 Rocket - Orbit

View from above orbital plane
View from above orbital plane
View from above satellite
View from above satellite

Ground track
Ground track

The orbit data is extracted from the following two-line orbital elements,

1 15032U 84056B   21019.94610667  .00000126  00000-0  53298-4 0  9996
2 15032  74.0688 196.1552 0016917  23.7646 336.4284 14.34820905915198
Epoch (UTC): 19 January 2021 22:42:23
Eccentricity: 0.0016917
inclination: 74.0688°
perigee height: 763 km
apogee height: 788 km
right ascension of ascending node: 196.1552°
argument of perigee: 23.7646°
revolutions per day: 14.34820905
mean anomaly at epoch: 336.4284°
orbit number at epoch: 91519

The dashed part of the orbit path shows where the satellite is in the earth's shadow,  

DLR